Regional Weather Roundup
Issued by NWS

Home | Current Version | Previous Version | Graphics & Text | Print | Product List | Glossary On
Versions: 1 2 3 4 5 6 7 8 9 10 11 12 13 14 15 16 17 18 19 20 21 22 23 24 25 26 27 28 29 30 31 32 33 34 35 36 37 38 39 40 41 42 43 44 45 46 47 48 49 50
000
ASUS43 KTOP 202108
RWRKS

WEATHER ROUNDUP FOR KANSAS
NATIONAL WEATHER SERVICE GOODLAND KS
300 PM CST MON FEB 20 2017

NOTE:  "FAIR" INDICATES FEW OR NO CLOUDS BELOW 12,000 FEET WITH NO
SIGNIFICANT WEATHER AND/OR OBSTRUCTIONS TO VISIBILITY.

KSZ001>006-013>018-027>032-041>047-202200-
NORTHWEST KANSAS

CITY           SKY/WX    TMP DP  RH WIND       PRES   REMARKS
GOODLAND       SUNNY     63  20  19 N23G33    29.92S
HAYS           MOSUNNY   66  39  37 NW23      29.82R
HILL CITY      SUNNY     66  35  31 N22G31    29.86R
RUSSELL        SUNNY     69  34  27 NW20G26   29.79R
$$

KSZ061>065-074>080-084>089-202200-
SOUTHWEST KANSAS

CITY           SKY/WX    TMP DP  RH WIND       PRES   REMARKS
DODGE CITY     SUNNY     66  25  21 NW23G31   29.87S
ELKHART          N/A     64  15  15 NW18        N/A
GARDEN CITY    SUNNY     65  14  14 N22G33    29.90F
GREAT BEND     SUNNY     68  33  27 NW20G28   29.81R
LIBERAL        SUNNY     66  18  15 N23G31    29.94R
PRATT          MOSUNNY   67  22  18 NW18      29.84R
$$

KSZ066>073-081>083-090>101-202200-
SOUTHEAST KANSAS

CITY           SKY/WX    TMP DP  RH WIND       PRES   REMARKS
CHANUTE        PTSUNNY   64  52  64 SW17      29.86F
COFFEYVILLE    CLOUDY    64  55  72 S12       29.89R
HUTCHINSON     MOSUNNY   66  41  40 W5        29.81R
MEDICINE LODGE   N/A     72  32  23 N9        29.83R
NEWTON         PTSUNNY   59  52  77 SW14      29.81S
PARSONS        CLOUDY    64  54  69 S9        29.89R
WICHITA INTL   CLOUDY    60  53  77 S14       29.81F
WICHITA JABRA  CLOUDY    59  52  77 SW12      29.82F
WICHITA MCCONL CLOUDY    60  51  72 SW13      29.82F
WINFIELD       CLOUDY    60  54  80 SW15      29.88R
$$

KSZ007>012-019>026-033>040-048>060-102>105-202200-
NORTHEAST KANSAS

CITY           SKY/WX    TMP DP  RH WIND       PRES   REMARKS
CONCORDIA      PTSUNNY   68  43  40 NW14G20   29.76S
EMPORIA        CLOUDY    61  52  72 S16       29.84R
LAWRENCE       PTSUNNY   66  53  63 S14       29.82F
MANHATTAN      CLOUDY    60  53  77 S10       29.79R
MARYSVILLE     CLOUDY    61  54  77 SW8       29.78R
OLATHE IND     CLOUDY    66  51  58 SW15      29.84R
OLATHE EXE     CLOUDY    65  51  60 SW10G24   29.84R
SALINA         MOSUNNY   71  40  32 NW10      29.79R
TOPEKA BILLARD CLOUDY    64  54  69 S14       29.81R
TOPEKA FORBES  CLOUDY    64  54  69 S17G23    29.82R
$$



USA.gov is the U.S. government's official web portal to all federal, state and local government web resources and services.